TimeHST,TemperatureF,Dew PointF,Humidity,Sea Level PressureIn,VisibilityMPH,Wind Direction,Wind SpeedMPH,Gust SpeedMPH,PrecipitationIn,Events,Conditions,WindDirDegrees,DateUTC
12:53 AM,71.1,66.9,87,30.04,10.0,South,5.8,-,N/A,,Overcast,170,2011-12-03 10:53:00
1:53 AM,71.1,66.9,87,30.04,10.0,South,5.8,-,0.00,,Overcast,190,2011-12-03 11:53:00
2:53 AM,71.1,66.9,87,30.02,10.0,SSW,3.5,-,N/A,,Overcast,200,2011-12-03 12:53:00
3:53 AM,71.1,66.9,87,30.02,10.0,WSW,6.9,-,N/A,,Overcast,240,2011-12-03 13:53:00
4:53 AM,71.1,66.9,87,30.03,10.0,Variable,6.9,-,N/A,,Overcast,0,2011-12-03 14:53:00
5:02 AM,71.6,68.0,88,30.04,5.0,East,6.9,-,0.01,Rain,Heavy Rain,100,2011-12-03 15:02:00
5:18 AM,71.6,66.2,83,30.04,4.0,West,4.6,-,0.06,Rain,Light Rain,270,2011-12-03 15:18:00
5:53 AM,70.0,68.0,93,30.05,10.0,SW,4.6,-,0.07,,Overcast,230,2011-12-03 15:53:00
6:53 AM,71.1,66.9,87,30.06,9.0,WSW,3.5,-,0.00,Rain,Light Rain,240,2011-12-03 16:53:00
7:07 AM,71.6,66.2,83,30.06,10.0,Calm,Calm,-,0.00,,Overcast,0,2011-12-03 17:07:00
7:41 AM,71.6,66.2,83,30.07,10.0,SW,4.6,-,0.00,,Mostly Cloudy,230,2011-12-03 17:41:00
7:53 AM,72.0,68.0,87,30.07,10.0,Calm,Calm,-,0.00,,Overcast,0,2011-12-03 17:53:00
8:53 AM,73.9,69.1,85,30.08,10.0,Calm,Calm,-,N/A,,Overcast,0,2011-12-03 18:53:00
9:35 AM,75.2,69.8,83,30.09,10.0,Calm,Calm,-,0.00,,Overcast,0,2011-12-03 19:35:00
9:53 AM,75.9,69.1,79,30.09,10.0,Calm,Calm,-,0.00,,Overcast,0,2011-12-03 19:53:00
10:53 AM,77.0,68.0,74,30.08,10.0,Calm,Calm,-,N/A,,Overcast,0,2011-12-03 20:53:00
11:53 AM,77.0,68.0,74,30.06,5.0,Calm,Calm,-,0.00,Rain,Light Rain,0,2011-12-03 21:53:00
12:53 PM,75.9,70.0,82,30.04,10.0,Calm,Calm,-,0.00,Rain,Light Rain,0,2011-12-03 22:53:00
1:53 PM,77.0,69.1,76,30.02,10.0,NNE,3.5,-,0.00,,Overcast,20,2011-12-03 23:53:00
2:31 PM,77.0,68.0,74,30.03,10.0,ENE,6.9,-,N/A,,Mostly Cloudy,70,2011-12-04 00:31:00
2:44 PM,77.0,68.0,74,30.03,10.0,ENE,9.2,-,N/A,,Mostly Cloudy,70,2011-12-04 00:44:00
2:53 PM,78.1,68.0,71,30.03,10.0,NE,6.9,-,N/A,,Mostly Cloudy,50,2011-12-04 00:53:00
3:53 PM,75.9,68.0,76,30.03,10.0,ESE,5.8,-,N/A,,Mostly Cloudy,110,2011-12-04 01:53:00
3:59 PM,75.2,68.0,78,30.03,10.0,East,6.9,-,N/A,,Mostly Cloudy,100,2011-12-04 01:59:00
4:29 PM,75.2,68.0,78,30.04,10.0,Calm,Calm,-,N/A,,Overcast,0,2011-12-04 02:29:00
4:53 PM,75.0,66.9,76,30.04,10.0,ENE,5.8,-,N/A,,Overcast,70,2011-12-04 02:53:00
5:53 PM,73.9,66.9,79,30.06,10.0,East,3.5,-,N/A,,Overcast,90,2011-12-04 03:53:00
6:53 PM,73.0,66.9,81,30.09,10.0,ESE,3.5,-,N/A,,Mostly Cloudy,110,2011-12-04 04:53:00
7:50 PM,71.6,66.2,83,30.10,10.0,Calm,Calm,-,N/A,,Mostly Cloudy,0,2011-12-04 05:50:00
7:53 PM,72.0,68.0,87,30.10,10.0,Calm,Calm,-,N/A,,Mostly Cloudy,0,2011-12-04 05:53:00
8:53 PM,72.0,68.0,87,30.11,10.0,WSW,5.8,-,N/A,,Overcast,240,2011-12-04 06:53:00
9:02 PM,71.6,68.0,88,30.11,10.0,WSW,4.6,-,N/A,,Overcast,250,2011-12-04 07:02:00
9:42 PM,71.6,66.2,83,30.11,10.0,Calm,Calm,-,0.00,,Overcast,0,2011-12-04 07:42:00
9:53 PM,72.0,66.9,84,30.11,10.0,SW,3.5,-,0.00,,Overcast,220,2011-12-04 07:53:00
10:26 PM,71.6,66.2,83,30.11,10.0,Calm,Calm,-,N/A,,Mostly Cloudy,0,2011-12-04 08:26:00
10:33 PM,71.6,66.2,83,30.11,10.0,SW,3.5,-,N/A,,Mostly Cloudy,230,2011-12-04 08:33:00
10:53 PM,71.1,66.0,84,30.10,10.0,SW,3.5,-,N/A,,Overcast,220,2011-12-04 08:53:00
11:53 PM,71.1,66.0,84,30.09,10.0,SW,4.6,-,N/A,,Overcast,230,2011-12-04 09:53:00